Simultaneous Nadir Overpasses (SNOs) Predictions

Prediction of SNOs between FY3D and AQUA Satellite Orbit:

Table of predicted SNOs for the next 14.0 days since TLE Epoch: 1/30/2021
Index Date (FY3D) Time (FY3D) Lat,Lon (FY3D) SZA (FY3D ) Date (AQUA) Time (AQUA) Lat,Lon (AQUA) SZA (AQUA ) Distance(km) Time Diff (sec)
1 02/01/2021 07:54:31 -50.19, 95.55 41.24 02/01/2021 07:55:43 -50.33, 94.91 41.18 47.55 72
2 02/01/2021 08:46:25 46.03, -98.89 142.23 02/01/2021 08:46:18 46.08, -99.13 142.34 19.42 7
3 02/01/2021 09:30:43 -67.93, 83.13 57.51 02/01/2021 09:29:29 -68.08, 82.41 57.31 34.47 74
4 02/04/2021 01:02:44 46.12, 17.08 141.53 02/04/2021 01:02:46 46.19, 16.79 141.63 23.50 2
5 02/04/2021 01:52:48 -48.57,-174.61 40.53 02/04/2021 01:51:35 -48.56,-174.66 40.35 4.16 73
6 02/06/2021 17:18:53 46.73, 133.26 140.35 02/06/2021 17:19:05 46.78, 132.89 140.48 28.05 12
7 02/06/2021 18:09:46 -46.43, -59.57 39.41 02/06/2021 18:08:41 -46.42, -59.62 39.24 4.06 65
8 02/09/2021 09:35:05 47.23,-110.61 139.21 02/09/2021 09:35:26 47.30,-111.03 139.33 32.30 21
9 02/09/2021 10:26:14 -46.01, 56.20 39.77 02/09/2021 10:25:17 -46.05, 56.12 39.63 7.21 57
10 02/12/2021 01:51:16 47.78, 5.55 137.98 02/12/2021 01:51:46 47.87, 5.07 138.08 36.59 30



Historial Predications of SNOs between FY3D and AQUA
